Skip Page Navigation
NASA JPL Caltech
NASA Logo - Jet Propulsion Laboratory + View the NASA Portal
+ Near-Earth Object (NEO) Program
Search JPL
JPL Home Earth Solar System Stars & Galaxies Technology
JPL Solar System Dynamics
BODIES ORBITS EPHEMERIDES TOOLS PHYSICAL DATA DISCOVERY FAQ SITE MAP
JPL Small-Body Database Browser
Search: [ help ]  
19230 Sugazi (1993 TU)
Classification: Main-belt Asteroid          SPK-ID: 2019230
Ephemeris | Orbit Diagram | Orbital Elements | Physical Parameters | Discovery Circumstances ]

[ show orbit diagram ]
Orbital Elements at Epoch 2456400.5 (2013-Apr-18.0) TDB
Reference: MPO244357 (heliocentric ecliptic J2000)
 Element Value Uncertainty (1-sigma)   Units 
e 0.1278230 n/a  
a 2.1950552 n/a AU
q 1.9144767 n/a AU
i 4.36940 n/a deg
node 334.85011 n/a deg
peri 327.68251 n/a deg
M 67.20085 n/a deg
tp 2456178.7626498
(2012-Sep-08.26264980)
n/a JED
period 1187.8636368
3.25
n/a
n/a
d
yr
n 0.30306509 n/a deg/d
Q 2.4756337 n/a AU
  Orbit Determination Parameters
   # obs. used (total)      924  
   first obs. used      1976-??-??  
   last obs. used      2012-11-07  
   # oppositions      16  
   planetary ephem.      DE403  
   condition code      0  
   fit RMS      0.52  
   data source      MPC:mpn  
   producer      MPCLINUX  

Additional Information
 T_jup = 3.655 

Ephemeris | Orbit Diagram | Orbital Elements | Physical Parameters | Discovery Circumstances ]

Physical Parameter Table
Parameter Symbol Value Units Sigma Reference Notes
absolute magnitude H 14.3 mag n/a PDS3 (MPO 6486)  

19230 Sugazi           Discovered 1993 Oct. 11 by K. Endate and K. Watanabe at Kitami.
Sugazi Tanaka (b. 1947) has been director of the Inagawa Observatory since 2002. He makes nightly contributons to his local community by operating the observatory's 0.5-m Cassegrain telescope and its planetarium.
NOTE: some special characters may not display properly (any characters within {} are an attempt to place the proper accent above a character)
Reference: 20130127/MPCPages.arcLast Updated: 2013-01-31

Alternate Designations
 1993 TU = 1995 DQ3 = 1996 PH5 
Ephemeris | Orbit Diagram | Orbital Elements | Physical Parameters | Discovery Circumstances ]
ABOUT SSD CREDITS/AWARDS PRIVACY/COPYRIGHT GLOSSARY LINKS
FirstGov 2013-May-22 07:00 UT
(server date/time)  
NASA Home Page
Site Manager:   Donald K. Yeomans
Webmaster  Alan B. Chamberlin